This demonstration page uses our WeatherBlox Daily Observations layout. Learn more.

Hourly Observations for December 22, 2019

Temp ( °F °C ) Dew Point ( °F °C ) Humidity (%) Winds ( mph kmh ) Pressure ( in mb ) Visibility ( mi km ) Precip ( " mm )
12:54 am 00:54 Clear 37 2.8 28 -2.2 70 70 SSW 10 17 30.18 1022 10 16.0934 0 0
1:54 am 01:54 Clear 37 2.8 28 -2.2 70 70 SSW 14 22 30.16 1021 10 16.0934 0 0
2:54 am 02:54 Clear 36 2.2 26 -3.3 67 67 SSW 12 19 30.17 1022 10 16.0934 0 0
3:54 am 03:54 Clear 35 1.7 25 -3.9 67 67 SSW 9 15 30.16 1022 10 16.0934 0 0
4:54 am 04:54 Clear 33 0.6 24 -4.4 70 70 S 6 9 30.16 1021 10 16.0934 0 0
5:54 am 05:54 Clear 32 0 24 -4.4 73 73 S 6 9 30.15 1021 10 16.0934 0 0
6:54 am 06:54 Clear 33 0.6 25 -3.9 72 72 S 10 17 30.15 1021 10 16.0934 0 0
7:54 am 07:54 Sunny 33 0.6 25 -3.9 72 72 S 10 17 30.16 1021 10 16.0934 0 0
8:54 am 08:54 Sunny 35 1.7 26 -3.3 70 70 S 9 15 30.15 1021 10 16.0934 0 0
9:54 am 09:54 Sunny 39 3.9 27 -2.8 62 62 SSW 10 17 30.16 1021 10 16.0934 0 0
10:54 am 10:54 Sunny 42 5.6 27 -2.8 55 55 SSW 10 17 30.15 1021 10 16.0934 0 0
11:54 am 11:54 Sunny 45 7.2 28 -2.2 52 52 S 10 17 30.12 1020 10 16.0934 0 0
12:54 pm 12:54 Sunny 51 10.6 28 -2.2 41 41 SSW 13 20 30.08 1019 10 16.0934 0 0
1:54 pm 13:54 Sunny 55 12.8 28 -2.2 35 35 SSW 14 22 30.05 1018 10 16.0934 0 0
2:54 pm 14:54 Sunny 57 13.9 28 -2.2 33 33 S 10 17 30.04 1017 10 16.0934 0 0
3:54 pm 15:54 Sunny 55 12.8 30 -1.1 38 38 S 12 19 30.04 1017 10 16.0934 0 0
4:54 pm 16:54 Sunny 47 8.3 29 -1.7 50 50 S 7 11 30.05 1018 10 16.0934 0 0
5:54 pm 17:54 Clear 45 7.2 29 -1.7 54 54 SSE 7 11 30.04 1017 10 16.0934 0 0
6:54 pm 18:54 Clear 41 5 29 -1.7 62 62 S 5 7 30.05 1018 10 16.0934 0 0
7:54 pm 19:54 Clear 39 3.9 30 -1.1 70 70 S 7 11 30.05 1018 10 16.0934 0 0
8:54 pm 20:54 Clear 40 4.4 31 -0.6 70 70 S 6 9 30.05 1018 10 16.0934 0 0
9:54 pm 21:54 Clear 38 3.3 31 -0.6 76 76 S 7 11 30.04 1017 10 16.0934 0 0
10:54 pm 22:54 Clear 39 3.9 31 -0.6 73 73 Calm 30.04 1017 10 16.0934 0 0
11:54 pm 23:54 Clear 37 2.8 31 -0.6 79 79 SSW 8 13 30.05 1018 10 16.0934 0 0

Powered by AerisWeather